User: anonymous   Login
Location: Allos
(44.2333°N, 6.6333°E)
Time: 17:37:31
(UTC+00:00)
Language:

Cosmos 2228 Rocket - Orbit

View from above orbital plane
View from above orbital plane
View from above satellite
View from above satellite

Ground track
Ground track

The orbit data is extracted from the following two-line orbital elements,

1 22287U 92094B   21136.63736354  .00000090  00000-0  92557-5 0  9997
2 22287  82.5255 187.1239 0023948 335.3049  24.7015 14.78180888508683
Epoch (UTC): 16 May 2021 15:17:48
Eccentricity: 0.0023948
inclination: 82.5255°
perigee height: 618 km
apogee height: 652 km
right ascension of ascending node: 187.1239°
argument of perigee: 335.3049°
revolutions per day: 14.78180888
mean anomaly at epoch: 24.7015°
orbit number at epoch: 50868

The dashed part of the orbit path shows where the satellite is in the earth's shadow,  

DLR